Weather Roundup
Issued by NWS Springfield, MO

Home | Current Version | Previous Version | Text Only | Print | Product List | Glossary On
Versions: 1 2 3 4 5 6 7 8 9 10 11 12 13 14 15 16 17 18 19 20 21 22 23 24 25 26 27 28 29 30 31 32 33 34 35 36 37 38 39 40 41 42 43 44 45 46 47 48 49 50
000
NZUS99 KSGF 290457
HRRSGF

HOURLY WEATHER
NATIONAL WEATHER SERVICE SPRINGFIELD MO
1200 AM CDT SAT AUG 29 2015

......SGF CWA......

CITY           SKY/WX    TMP DP  RH WIND       PRES   REMARKS
SPRINGFIELD    CLOUDY    71  61  70 S9        30.01S
JOPLIN         CLOUDY    73  64  73 S9        29.98S
WEST PLAINS    MOCLDY    70  60  70 SE7       30.06S
ROLLA          MOCLDY    71  60  68 S12       30.00S

......SURROUNDING SGF CWA......

CITY           SKY/WX    TMP DP  RH WIND       PRES   REMARKS
CHANUTE        PTCLDY    70  68  93 CALM      29.96S
PARSONS        MOCLDY    70  69  97 CALM      29.97R
COFFEYVILLE    MOCLDY    71  68  90 SE6       29.95R
EMPORIA        CLOUDY    72  68  87 W7        29.96S
GROVE OK       CLOUDY    72  66  83 S5        29.99R

......KANSAS AND MISSOURI......

CITY           SKY/WX    TMP DP  RH WIND       PRES   REMARKS
KANSAS CTY INT MOCLDY    70  67  90 SW8       29.93S
SEDALIA        CLOUDY    71  63  75 S8        29.98R
ST JOSEPH      CLOUDY    72  68  87 SW5       29.92S
ST LOUIS       CLOUDY    76  60  57 S8        30.03R
WICHITA        PTCLDY    75  67  76 N5        29.97R
TOPEKA         MOCLDY    71  70  96 CALM      29.93S
OLATHE         MOCLDY    71  68  90 S8        29.93F

......TENNESSEE......

CITY           SKY/WX    TMP DP  RH WIND       PRES   REMARKS
MEMPHIS        NOT AVBL
NASHVILLE      CLEAR     71  63  75 SE3       30.11S

......ARKANSAS.......

CITY           SKY/WX    TMP DP  RH WIND       PRES   REMARKS
FAYETTEVILLE   PTCLDY    72  62  71 CALM      30.02R
FT SMITH       CLOUDY    74  65  73 E6        29.99R
LITTLE ROCK    CLOUDY    72  62  71 CALM      30.03S

......OKLAHOMA.......

CITY           SKY/WX    TMP DP  RH WIND       PRES   REMARKS
TULSA          PTCLDY    78  67  68 S10       29.93S
PONCA CITY     PTCLDY    75  68  78 S3        29.93R
MCALESTER      CLOUDY    80  60  50 S8        29.98S
OKLAHOMA CITY  MOCLDY    74  67  78 S7        29.97S

......IOWA............

CITY           SKY/WX    TMP DP  RH WIND       PRES   REMARKS
DES MOINES     NOT AVBL
QUAD CITIES    RAIN      67  62  84 SE9       30.00F

......ILLINOIS........

CITY           SKY/WX    TMP DP  RH WIND       PRES   REMARKS
QUINCY         NOT AVBL
CHICAGO        CLOUDY    70  63  78 NE5       30.08R



USA.gov is the U.S. government's official web portal to all federal, state and local government web resources and services.